North Conway, NH

5:05 AM EDT on October 16, 2019 (GMT -0400)
North Conway

Weather History for KCWN - September, 2019

Change the Weather History Date:

Wednesday, September 18, 2019

  Actual Average (WUND) Record (WUND)
Temperature  
Mean Temperature 66 °F -  
Max Temperature 72 °F - - (-1)
Min Temperature 60 °F - - (-1)
Cooling Degree Days 1    
Growing Degree Days 16 (Base 50)    
Moisture  
Dew Point 35 °F    
Average Humidity 32    
Maximum Humidity 41    
Minimum Humidity 25    
Precipitation  
Precipitation 0.00 in - - ()
Sea Level Pressure  
Sea Level Pressure 29.60 in    
Wind  
Wind Speed 10 mph (SSE)    
Max Wind Speed 20 mph    
Max Gust Speed 30 mph    
Visibility 10 miles    
Events      
Averages and records for this station are not official NWS values.
T = Trace of Precipitation, MM = Missing Value Source: NWS Daily Summary

Daily Weather History Graph

Daily Weather History Graph

Search for Another Location

Airport or City:

Astronomy

Sep. 18, 2019 Rise Set
Actual Time 6:26 AM EDT 6:49 PM EDT
Civil Twilight 5:58 AM EDT 7:18 PM EDT
Nautical Twilight 5:23 AM EDT 7:52 PM EDT
Astronomical Twilight 4:48 AM EDT 8:27 PM EDT
Moon 9:13 PM EDT (9/18) 10:34 AM EDT (9/18)
Length of Visible Light 13h 20m
Length of Day
12h 23m
Waning Gibbous, 82% of the Moon is Illuminated
Sep 18
Waning Gibbous
Sep 21
Last Quarter
Sep 28
New
Oct 5
First Quarter
Oct 13
Full

Hourly Weather History & Observations

Time (EDT) Temp. Dew Point Humidity Pressure Visibility Wind Dir Wind Speed Gust Speed Precip Events Conditions
12:58 AM 66.7 °F 31.6 °F 27% 29.54 in 10.0 mi West 5.8 mph - N/A   Clear
2:58 AM 66.7 °F 30.9 °F 26% 29.53 in 10.0 mi WNW 10.4 mph - N/A   Clear
4:58 AM 66.7 °F 29.7 °F 25% 29.54 in 10.0 mi South 6.9 mph - N/A   Clear
5:58 AM 61.2 °F 34.3 °F 37% 29.57 in 10.0 mi Calm Calm - N/A   Clear
6:58 AM 60.6 °F 33.4 °F 36% 29.61 in 10.0 mi SSE 6.9 mph - N/A   Clear
7:58 AM 61.9 °F 34.2 °F 35% 29.59 in 10.0 mi South 6.9 mph - N/A   Clear
8:58 AM 61.5 °F 36.3 °F 39% 29.63 in 10.0 mi South 6.9 mph - N/A   Partly Cloudy
9:58 AM 62.1 °F 38.1 °F 41% 29.65 in 10.0 mi South 12.7 mph 20.7 mph N/A   Clear
10:58 AM 63.3 °F 38.8 °F 40% 29.66 in 10.0 mi SE 16.1 mph - N/A   Clear
11:58 AM 65.3 °F 38.3 °F 37% 29.65 in 10.0 mi SSE 16.1 mph 20.7 mph N/A   Clear
12:58 PM 67.1 °F 37.9 °F 34% 29.64 in 10.0 mi SE 19.6 mph 26.5 mph N/A   Clear
1:58 PM 70.0 °F 39.0 °F 32% 29.62 in 10.0 mi SE 13.8 mph 25.3 mph N/A   Clear
3:58 PM 72.9 °F 37.6 °F 28% 29.56 in 10.0 mi SE 18.4 mph 24.2 mph N/A   Clear
4:58 PM 72.1 °F 36.3 °F 27% 29.56 in 10.0 mi SE 16.1 mph 29.9 mph N/A   Clear
7:58 PM 69.8 °F 34.9 °F 28% 29.57 in 10.0 mi SSE 11.5 mph 20.7 mph N/A   Clear
8:58 PM 68.7 °F 34.7 °F 29% 29.60 in 10.0 mi South 10.4 mph - N/A   Clear
9:58 PM 67.8 °F 34.7 °F 29% 29.62 in 10.0 mi South 13.8 mph 19.6 mph N/A   Clear
10:58 PM 67.5 °F 34.5 °F 30% 29.62 in 10.0 mi South 15.0 mph 24.2 mph N/A   Clear
11:58 PM 66.0 °F 36.5 °F 34% 29.63 in 10.0 mi SSE 10.4 mph 19.6 mph N/A   Partly Cloudy